Location: Belvedere Heights
(33.9836°N, 117.3109°W)
Time: 05:42:55
(UTC+00:00)

POLYITAN 1 - Pass Details

Date: 02 June 2024
Orbit: 548 x 570 km, 98.1° (Epoch: 13 June)

Event Time Altitude Azimuth Distance (km) Brightness Sun altitude
Rises 10:58:20 0° 16° (NNE) 2,733 ? -17.7°
Reaches altitude 10° 11:00:30 10° 21° (NNE) 1,832 ? -17.4°
Maximum altitude 11:04:24 58° 101° (E) 642 ? -16.8°
Enters shadow 11:07:07 19° 176° (S) 1,355 ? -16.4°
